Nashville, TN

1:28 PM CDT on March 29, 2017 (GMT -0500)
Nashville International

Weather History for KBNA - June, 2013

Change the Weather History Date:

Sunday, June 16, 2013

  Actual Average Record
Temperature  
Mean Temperature 78 °F 76 °F  
Max Temperature 88 °F 86 °F 100 °F (1952)
Min Temperature 68 °F 66 °F 47 °F (1917)
Degree Days  
Heating Degree Days 0    
Month to date heating degree days 0  
Since 1 June heating degree days 0  
Since 1 July heating degree days 3532  
Cooling Degree Days 13    
Month to date cooling degree days 170  
Year to date cooling degree days 377  
Since 1 June cooling degree days 170  
Growing Degree Days 28 (Base 50)    
Moisture  
Dew Point 66 °F    
Average Humidity 68    
Maximum Humidity 84    
Minimum Humidity 51    
Precipitation  
Precipitation 0.00 in 0.14 in 3.42 in (1960)
Month to date precipitation 2.82 2.30  
Year to date precipitation 27.26 23.60  
Snow  
Snow 0.00 in - 0.00 in (2002)
Month to date snowfall 0.0  
Since 1 June snowfall 0.0  
Since 1 July snowfall 1.3  
Snow Depth 0.00 in    
Sea Level Pressure  
Sea Level Pressure 30.02 in    
Wind  
Wind Speed 5 mph (SW)    
Max Wind Speed 15 mph    
Max Gust Speed 20 mph    
Visibility 10 miles    
Events      
T = Trace of Precipitation, MM = Missing Value Source: NWS Daily Summary

Daily Weather History Graph

Daily Weather History Graph

Search for Another Location

Airport or City:

Trip Planner

Search our weather history database for the weather conditions in past years. The results will help you decide how hot, cold, wet, or windy it might be!

Date:

Astronomy

Jun. 16, 2013 Rise Set
Actual Time 5:29 AM CDT 8:05 PM CDT
Civil Twilight 4:58 AM CDT 8:36 PM CDT
Nautical Twilight 4:21 AM CDT 9:13 PM CDT
Astronomical Twilight 3:39 AM CDT 9:55 PM CDT
Moon 12:51 PM CDT (6/16) 12:22 AM CDT (6/16)
Length of Visible Light 15h 37m
Length of Day
14h 36m
Waxing Crescent, 50% of the Moon is Illuminated
Jun 16
Waxing Crescent
Jun 16
First Quarter
Jun 23
Full
Jun 29
Last Quarter
Jul 8
New

Hourly Weather History & Observations

Time (CDT) Temp. Heat Index Dew Point Humidity Pressure Visibility Wind Dir Wind Speed Gust Speed Precip Events Conditions
12:53 AM 69.1 °F - 64.0 °F 84% 30.04 in 10.0 mi South 3.5 mph - N/A   Mostly Cloudy
1:53 AM 69.1 °F - 63.0 °F 81% 30.03 in 10.0 mi South 4.6 mph - N/A   Mostly Cloudy
2:53 AM 68.0 °F - 63.0 °F 84% 30.03 in 10.0 mi South 3.5 mph - N/A   Mostly Cloudy
3:53 AM 70.0 °F - 63.0 °F 78% 30.03 in 10.0 mi SE 3.5 mph - N/A   Scattered Clouds
4:53 AM 69.1 °F - 63.0 °F 81% 30.04 in 10.0 mi Calm Calm - N/A   Mostly Cloudy
5:53 AM 69.1 °F - 64.0 °F 84% 30.05 in 10.0 mi Calm Calm - N/A   Mostly Cloudy
6:53 AM 71.1 °F - 64.0 °F 78% 30.05 in 10.0 mi South 6.9 mph - N/A   Overcast
7:53 AM 75.0 °F - 64.9 °F 71% 30.07 in 10.0 mi South 6.9 mph - N/A   Overcast
8:53 AM 79.0 °F - 64.0 °F 60% 30.07 in 10.0 mi SSW 11.5 mph 16.1 mph N/A   Mostly Cloudy
9:53 AM 82.9 °F 84.4 °F 64.0 °F 53% 30.05 in 10.0 mi SSW 11.5 mph - N/A   Mostly Cloudy
10:53 AM 84.9 °F 86.6 °F 64.9 °F 51% 30.04 in 10.0 mi SW 4.6 mph - N/A   Mostly Cloudy
11:53 AM 86.0 °F 88.2 °F 66.0 °F 51% 30.03 in 10.0 mi SW 6.9 mph 18.4 mph N/A   Mostly Cloudy
12:53 PM 86.0 °F 88.2 °F 66.0 °F 51% 30.02 in 10.0 mi WSW 9.2 mph - N/A   Mostly Cloudy
1:53 PM 86.0 °F 88.2 °F 66.0 °F 51% 30.01 in 10.0 mi WSW 4.6 mph - N/A   Overcast
2:53 PM 84.0 °F 86.5 °F 66.9 °F 56% 30.00 in 10.0 mi West 5.8 mph - N/A   Overcast
3:53 PM 86.0 °F 89.4 °F 68.0 °F 55% 29.99 in 10.0 mi WNW 6.9 mph - N/A   Mostly Cloudy
4:53 PM 84.9 °F 87.1 °F 66.0 °F 53% 29.98 in 10.0 mi WSW 5.8 mph - N/A   Mostly Cloudy
5:53 PM 84.9 °F 87.6 °F 66.9 °F 55% 29.97 in 10.0 mi WSW 8.1 mph - N/A   Mostly Cloudy
6:53 PM 82.9 °F 85.8 °F 68.0 °F 60% 29.98 in 10.0 mi SW 3.5 mph - N/A   Overcast
7:53 PM 82.0 °F 84.9 °F 68.0 °F 62% 29.98 in 10.0 mi Calm Calm - N/A   Overcast
8:53 PM 81.0 °F 84.1 °F 69.1 °F 67% 29.97 in 10.0 mi Calm Calm - N/A   Overcast
9:53 PM 79.0 °F - 70.0 °F 74% 29.98 in 10.0 mi Calm Calm - N/A   Mostly Cloudy
10:53 PM 77.0 °F - 69.1 °F 76% 29.98 in 10.0 mi SSW 4.6 mph - N/A   Mostly Cloudy
11:53 PM 75.9 °F - 68.0 °F 76% 29.98 in 10.0 mi SSW 4.6 mph - N/A   Mostly Cloudy